TimeEST,TemperatureF,Dew PointF,Humidity,Sea Level PressureIn,VisibilityMPH,Wind Direction,Wind SpeedMPH,Gust SpeedMPH,PrecipitationIn,Events,Conditions,WindDirDegrees,DateUTC
12:54 AM,42.1,39.0,89,30.08,10.0,West,3.5,-,N/A,,Overcast,270,2013-11-03 04:54:00
1:22 AM,42.8,39.2,87,30.10,10.0,West,3.5,-,N/A,,Overcast,280,2013-11-03 05:22:00
1:54 AM,42.1,39.0,89,30.09,10.0,WNW,4.6,-,N/A,,Overcast,290,2013-11-03 05:54:00
1:54 AM,42.1,39.0,89,30.10,10.0,WNW,4.6,-,N/A,,Overcast,290,2013-11-03 06:54:00
2:54 AM,43.0,39.0,86,30.13,10.0,WNW,3.5,-,N/A,,Overcast,300,2013-11-03 07:54:00
3:54 AM,43.0,39.9,89,30.16,10.0,North,3.5,-,N/A,,Overcast,350,2013-11-03 08:54:00
4:54 AM,42.1,39.0,89,30.19,10.0,East,9.2,-,N/A,,Overcast,80,2013-11-03 09:54:00
5:54 AM,41.0,39.0,93,30.21,10.0,NE,6.9,-,0.00,,Light Drizzle,50,2013-11-03 10:54:00
6:54 AM,39.0,36.0,89,30.24,10.0,ENE,10.4,-,0.01,,Overcast,70,2013-11-03 11:54:00
7:04 AM,39.2,35.6,87,30.25,10.0,ENE,6.9,-,N/A,,Overcast,60,2013-11-03 12:04:00
7:54 AM,39.0,36.0,89,30.27,5.0,ENE,6.9,-,0.00,,Light Drizzle,70,2013-11-03 12:54:00
8:25 AM,39.2,35.6,87,30.30,9.0,ENE,10.4,-,0.00,Rain,Light Rain,70,2013-11-03 13:25:00
8:54 AM,39.9,37.0,89,30.29,9.0,ENE,8.1,-,0.00,Rain,Light Rain,70,2013-11-03 13:54:00
9:54 AM,41.0,37.0,86,30.32,10.0,East,6.9,-,0.00,,Mostly Cloudy,90,2013-11-03 14:54:00
10:14 AM,42.8,37.4,81,30.33,10.0,East,8.1,-,N/A,,Overcast,80,2013-11-03 15:14:00
10:47 AM,42.8,37.4,81,30.34,10.0,East,6.9,-,N/A,,Overcast,100,2013-11-03 15:47:00
10:54 AM,43.0,37.0,80,30.34,10.0,East,5.8,-,N/A,,Overcast,100,2013-11-03 15:54:00
11:54 AM,45.0,37.9,76,30.33,10.0,Variable,5.8,-,N/A,,Mostly Cloudy,0,2013-11-03 16:54:00
12:03 PM,46.4,39.2,76,30.34,10.0,East,5.8,-,N/A,,Scattered Clouds,80,2013-11-03 17:03:00
12:49 PM,48.2,37.4,66,30.33,10.0,ESE,5.8,-,N/A,,Mostly Cloudy,110,2013-11-03 17:49:00
12:54 PM,46.9,37.9,71,30.32,10.0,SE,5.8,-,N/A,,Mostly Cloudy,130,2013-11-03 17:54:00
1:29 PM,46.4,37.4,71,30.32,10.0,SSE,5.8,-,N/A,,Mostly Cloudy,150,2013-11-03 18:29:00
1:54 PM,46.9,37.0,68,30.30,10.0,SE,4.6,-,N/A,,Mostly Cloudy,140,2013-11-03 18:54:00
2:54 PM,48.0,37.0,66,30.31,10.0,SE,9.2,-,N/A,,Overcast,130,2013-11-03 19:54:00
3:54 PM,48.0,36.0,63,30.30,10.0,SE,9.2,-,N/A,,Overcast,130,2013-11-03 20:54:00
4:54 PM,46.9,37.0,68,30.31,10.0,East,5.8,-,N/A,,Mostly Cloudy,100,2013-11-03 21:54:00
5:54 PM,42.1,35.1,76,30.32,10.0,East,5.8,-,N/A,,Partly Cloudy,90,2013-11-03 22:54:00
6:54 PM,39.0,34.0,82,30.32,10.0,East,6.9,-,N/A,,Partly Cloudy,90,2013-11-03 23:54:00
7:54 PM,37.9,33.1,83,30.34,10.0,East,6.9,-,N/A,,Partly Cloudy,90,2013-11-04 00:54:00
8:54 PM,39.0,35.1,86,30.35,10.0,East,8.1,-,N/A,,Partly Cloudy,80,2013-11-04 01:54:00
9:54 PM,39.0,35.1,86,30.35,10.0,East,10.4,-,N/A,,Scattered Clouds,90,2013-11-04 02:54:00
10:54 PM,37.9,35.1,89,30.36,10.0,East,9.2,-,N/A,,Mostly Cloudy,100,2013-11-04 03:54:00